Orbital Elements at Epoch 2459200.5 (2020-Dec-17.0) TDB
Reference: JPL 19 (heliocentric ecliptic J2000)
Element | Value | Uncertainty (1-sigma) | Units |
e | .05604700379356665 | 5.2026e-08 | |
a | 2.960128229508148 | 2.5187e-08 | au |
q | 2.794221911399461 | 1.607e-07 | au |
i | 4.122229960163403 | 6.674e-06 | deg |
node | 120.8155543372888 | 0.00010887 | deg |
peri | 316.9780506623387 | 0.0001356 | deg |
M | 74.62090789987548 | 7.9598e-05 | deg |
tp | 2458814.913125671196 (2019-Nov-27.41312567) | 0.00041057 | TDB |
period | 1860.219590796496 5.09 | 2.3742e-05 6.5e-08 | d yr |
n | .1935255395551757 | 2.47e-09 | deg/d |
Q | 3.126034547616835 | 2.6599e-08 | au |
|
| | Orbit Determination Parameters
Additional Information
|